Temperature
8 8 8 8 7 7 7 7 6 6 6 6 6 6 5 5 5 5 5 5 5 5 4 4 4 4 4 4 3 3 3 2 2 2 3 2 2 2 2 2 2 2 2
8 8 7 7 7 7 7 6 6 6 6 6 5 5 5 5 5 5 4 4 4 4 4 4 4 3 3 3 3 3 2 2 2 2 2 2 2 2 2 1 1 1 1
8 7 7 7 7 7 6 6 6 6 6 5 5 5 5 5 4 4 4 4 4 4 4 3 3 3 3 3 3 2 2 2 1 1 1 1 1 1 1 1 0 0 0
7 7 7 7 7 6 6 6 6 5 5 5 5 5 4 4 4 4 4 4 3 3 3 3 3 3 2 2 2 2 1 1 1 1 1 0 0 -0 -1 -1 -1 -0 -0
7 7 7 6 6 6 6 6 5 5 5 5 4 4 4 4 4 4 3 3 3 3 3 2 2 2 2 2 1 1 1 1 0 -0 -0 -1 -1 -1 -1 -1 -2 -1 -1
7 7 6 6 6 6 5 5 5 5 4 4 4 4 4 4 3 3 3 3 2 2 2 2 2 2 2 1 1 1 0 -0 -1 -1 -1 -1 -1 -1 -2 -2 -2 -3 -2
6 6 6 6 6 5 5 5 4 4 4 4 4 4 3 3 3 3 2 2 2 2 2 1 1 1 1 1 1 0 0 -0 -1 -1 -2 -2 -2 -2 -2 -3 -3 -3 -3
6 6 5 5 5 5 5 4 4 4 4 4 3 3 3 3 3 2 2 2 2 1 1 1 1 1 0 0 -0 -0 -1 -1 -1 -2 -2 -2 -2 -3 -3 -3 -3 -4 -3
5 5 5 5 5 4 4 4 4 3 3 3 3 3 3 3 2 2 1 1 1 1 1 1 0 0 -0 -1 -1 -1 -1 -1 -2 -2 -2 -3 -3 -3 -3 -4 -4 -4 -4
5 5 5 4 4 4 4 3 3 3 3 3 3 3 2 2 2 1 1 1 1 1 1 0 -0 -0 -1 -1 -1 -2 -2 -2 -2 -2 -3 -3 -3 -3 -4 -4 -4 -5 -5
4 4 4 4 4 3 3 3 3 3 2 2 2 2 2 2 1 1 1 1 1 0 0 -0 -0 -1 -1 -1 -2 -2 -2 -3 -3 -3 -3 -3 -4 -4 -4 -4 -5 -5 -5
4 4 3 3 3 3 3 3 2 2 2 2 2 2 2 1 1 1 1 0 -0 -0 -0 -1 -1 -1 -2 -2 -2 -2 -3 -3 -3 -3 -4 -4 -4 -4 -5 -5 -5 -5 -5
3 3 3 3 3 2 2 2 2 2 2 1 1 1 1 1 1 0 0 -0 -0 -1 -1 -1 -2 -2 -2 -2 -2 -3 -3 -4 -4 -4 -5 -5 -5 -5 -5 -5 -5 -5 -6
3 3 2 2 2 2 2 2 1 1 1 1 1 1 1 1 0 0 -0 -0 -1 -1 -1 -2 -2 -2 -3 -3 -3 -3 -4 -4 -5 -5 -5 -5 -5 -5 -5 -5 -6 -6 -6
2 2 2 2 2 1 1 1 1 1 1 0 0 0 -0 -0 -0 -1 -1 -1 -1 -2 -2 -2 -2 -3 -3 -3 -4 -4 -4 -5 -5 -5 -6 -6 -6 -6 -6 -6 -6 -6 -7
1 1 1 1 1 1 1 1 0 0 0 -0 -0 -0 -1 -1 -1 -1 -1 -2 -2 -3 -3 -3 -3 -3 -4 -4 -4 -5 -5 -5 -5 -6 -6 -6 -6 -6 -6 -6 -7 -7 -7
1 1 1 0 0 -0 -0 -0 -0 -0 -0 -0 -1 -1 -1 -1 -1 -2 -2 -2 -3 -3 -4 -4 -4 -4 -4 -4 -5 -5 -5 -6 -6 -6 -6 -6 -6 -7 -7 -7 -7 -7 -7
0 -0 -0 -0 -1 -1 -1 -1 -1 -1 -1 -1 -1 -1 -2 -2 -2 -2 -3 -3 -3 -3 -4 -4 -4 -5 -5 -5 -5 -6 -6 -6 -6 -6 -6 -7 -7 -7 -7 -7 -7 -7 -8
-1 -1 -1 -1 -1 -1 -1 -1 -1 -2 -2 -2 -2 -2 -2 -3 -3 -3 -3 -4 -4 -4 -4 -5 -5 -5 -5 -6 -6 -6 -6 -6 -6 -7 -7 -7 -7 -7 -7 -7 -7 -8 -8
-1 -1 -1 -2 -2 -2 -2 -2 -2 -2 -2 -2 -3 -3 -3 -3 -3 -3 -4 -4 -4 -5 -5 -5 -5 -6 -6 -6 -6 -6 -7 -7 -7 -7 -7 -7 -7 -7 -8 -8 -8 -8 -8
-2 -2 -2 -2 -2 -2 -2 -3 -3 -3 -3 -3 -3 -3 -4 -4 -4 -4 -4 -5 -5 -5 -6 -6 -6 -6 -6 -7 -7 -7 -7 -7 -7 -7 -7 -7 -8 -8 -8 -8 -8 -8 -8
-2 -2 -2 -3 -3 -3 -3 -3 -3 -3 -4 -4 -4 -4 -4 -5 -5 -5 -5 -5 -6 -6 -6 -6 -7 -7 -7 -7 -7 -7 -7 -7 -7 -7 -8 -8 -8 -8 -8 -8 -8 -8 -9
-3 -3 -3 -3 -3 -3 -3 -4 -4 -4 -4 -4 -5 -5 -5 -5 -5 -6 -6 -6 -6 -6 -7 -7 -7 -7 -7 -7 -7 -7 -7 -7 -8 -8 -8 -8 -8 -8 -8 -9 -9 -9 -9
-3 -3 -4 -4 -4 -4 -4 -4 -4 -5 -5 -5 -5 -5 -6 -6 -6 -6 -6 -6 -7 -7 -7 -7 -7 -7 -7 -7 -7 -8 -8 -8 -8 -8 -8 -8 -8 -8 -9 -9 -9 -9 -9
-4 -4 -4 -4 -4 -4 -4 -5 -5 -5 -5 -6 -6 -6 -6 -6 -6 -7 -7 -7 -7 -7 -7 -7 -7 -7 -7 -8 -8 -8 -8 -8 -8 -8 -8 -8 -8 -9 -9 -9 -9 -9 -9
-4 -4 -5 -5 -5 -5 -5 -5 -6 -6 -6 -6 -6 -6 -7 -7 -7 -7 -7 -7 -7 -7 -7 -7 -7 -7 -8 -8 -8 -8 -8 -8 -8 -8 -8 -9 -9 -9 -9 -9 -9 -9 -9
Wind_Speed
6 5 5 5 5 5 5 5 4 4 4 4 4 4 3 3 3 3 3 3 3 2 2 2 3 2 2 2 2 2 3 3 5 4 3 3 4 5 8 9 10 10 11
6 6 5 5 5 5 5 4 4 4 4 4 4 4 3 3 3 4 4 3 4 3 3 3 3 2 3 2 2 3 3 4 4 6 4 3 5 5 5 6 8 9 10
5 6 5 5 5 5 4 4 4 4 4 3 4 4 4 3 4 4 4 4 4 4 4 4 4 3 4 3 3 4 3 3 4 5 6 4 4 4 4 5 6 7 10
5 6 6 5 5 5 4 4 4 4 4 4 4 4 4 4 4 4 4 4 4 4 4 5 5 5 6 5 4 5 4 4 3 4 6 5 5 4 3 5 6 4 6
6 6 6 5 5 4 4 4 4 4 4 4 4 3 3 3 4 4 4 4 4 4 4 5 5 6 7 6 5 4 4 4 4 5 6 5 5 4 4 4 6 6 6
6 6 5 5 5 5 5 4 4 4 3 3 4 4 4 4 5 6 5 4 5 5 5 5 5 6 8 9 10 9 7 6 5 5 6 7 8 6 5 5 6 7 7
5 5 5 5 5 5 4 4 4 4 3 3 4 4 4 5 6 7 7 4 5 5 5 5 5 5 7 5 8 10 10 12 11 7 8 9 8 7 7 7 7 8 8
5 5 5 5 5 4 4 4 4 3 4 4 4 4 4 5 7 8 8 5 5 6 6 6 6 6 6 6 6 6 7 8 9 7 8 9 9 8 8 8 9 8 8
5 6 6 6 6 5 5 5 4 4 4 4 4 5 5 6 8 8 7 4 4 6 6 6 6 7 10 10 6 7 7 7 11 14 15 15 16 16 12 6 6 7 9
6 6 5 6 6 6 6 5 4 4 5 4 4 5 6 6 8 8 7 4 5 5 5 5 9 9 11 11 7 6 8 8 6 7 9 10 10 11 14 8 6 7 8
4 4 4 5 6 6 5 4 4 4 4 4 5 5 5 6 8 9 8 4 5 5 5 4 5 11 12 12 10 7 10 9 6 6 6 6 6 6 6 6 6 7 8
3 4 4 5 4 4 5 4 4 4 4 4 4 4 4 5 6 8 9 8 7 5 5 5 6 11 11 12 9 10 13 11 4 5 6 6 6 6 6 6 7 9 10
3 3 3 3 3 4 5 5 4 4 4 4 4 4 4 4 5 9 9 9 9 6 5 8 10 11 10 8 10 12 10 5 4 6 7 7 6 6 5 5 6 7 7
3 3 3 3 3 3 4 4 4 4 4 4 5 5 5 4 4 4 4 5 7 6 5 7 9 10 7 8 8 7 4 5 5 6 6 6 5 5 5 5 4 4 5
3 3 3 3 3 3 3 4 4 5 5 6 5 5 5 5 6 8 5 4 4 5 4 3 3 3 3 4 4 4 4 4 6 5 5 6 6 6 5 4 4 4 5
3 3 2 2 2 2 2 2 5 6 7 9 9 7 6 8 9 9 9 9 9 9 5 4 4 4 5 5 5 5 5 5 5 5 5 5 6 6 6 4 4 4 5
3 3 2 2 2 3 3 3 3 3 4 6 7 8 8 8 8 8 9 9 9 8 5 4 5 5 5 5 5 5 6 5 5 5 5 5 5 5 5 5 5 4 5
3 3 3 3 3 3 3 3 3 3 3 3 4 6 7 7 7 8 8 6 5 5 4 5 5 5 5 5 5 5 6 5 5 5 5 5 5 5 5 5 5 5 5
2 2 2 2 3 3 3 3 3 4 4 4 3 4 6 6 7 7 6 4 5 5 5 5 5 5 5 5 5 5 6 6 5 5 5 5 5 5 5 5 5 7 6
2 3 3 2 2 2 2 3 3 3 4 4 4 4 3 3 3 4 4 4 5 5 5 5 5 5 5 5 5 5 5 5 5 5 5 4 4 4 5 5 5 5 5
1 2 2 2 2 2 3 3 3 4 4 4 4 5 6 4 5 5 4 5 5 6 5 5 5 5 5 5 5 6 6 6 5 5 5 4 4 4 4 5 5 5 5
1 1 2 2 2 2 3 3 3 4 4 5 5 5 8 5 4 5 5 5 5 5 5 5 5 5 5 5 6 6 6 5 5 5 5 4 4 4 4 4 5 4 4
1 2 2 2 2 4 4 3 3 4 4 5 5 5 5 4 4 5 5 5 5 4 4 5 5 5 5 5 5 6 6 6 5 5 5 5 4 4 4 5 5 5 5
1 2 2 3 3 3 3 4 4 4 4 4 4 5 5 4 5 6 5 5 5 5 4 5 5 6 7 6 6 6 6 7 6 5 6 6 5 5 5 5 5 5 5
2 2 3 3 3 3 4 4 4 4 4 4 5 5 5 5 5 5 5 5 5 5 6 5 5 5 7 7 7 7 8 10 9 6 5 5 5 5 5 5 5 5 5
3 3 3 3 3 4 4 4 4 5 5 5 5 5 5 5 5 5 5 5 5 5 5 5 6 7 7 7 8 9 9 10 10 9 6 4 4 5 4 4 5 5 5
Wind_Direction
173 169 160 165 163 157 163 171 169 162 160 162 167 166 166 166 166 164 174 169 178 197 201 204 229 227 227 224 213 208 209 203 247 271 254 267 273 281 298 298 295 292 293
172 165 166 162 158 161 169 172 167 166 168 169 168 168 174 176 174 178 190 189 193 208 219 215 234 231 232 227 219 221 222 216 226 270 279 272 268 274 283 290 293 291 288
162 161 162 164 166 174 178 174 170 168 168 168 169 178 186 188 188 194 196 201 207 215 217 219 230 226 239 235 227 228 230 236 226 253 278 274 276 276 282 283 279 283 287
164 165 172 180 181 182 178 174 174 170 172 177 182 188 192 194 198 201 200 208 217 223 222 223 226 224 231 233 235 232 231 236 238 254 272 279 276 271 265 279 291 278 281
167 175 187 183 174 170 173 176 173 175 184 184 182 190 196 200 206 205 205 210 217 230 235 235 234 238 241 241 243 232 224 235 247 259 271 281 278 278 273 272 284 290 281
176 186 182 172 172 177 181 177 176 184 187 183 191 196 205 219 230 227 218 212 220 228 240 247 248 249 256 261 265 260 247 241 246 255 268 269 274 270 273 275 282 293 293
182 184 180 176 179 186 182 178 189 196 193 198 209 207 219 234 241 241 236 221 222 229 235 243 254 255 265 252 263 267 262 261 258 255 258 262 269 266 270 276 272 271 272
184 189 185 179 185 185 184 195 203 199 201 209 218 219 225 240 244 245 244 225 225 233 235 236 242 251 252 254 247 253 254 259 263 258 249 256 258 258 255 266 272 275 272
195 199 195 187 187 190 199 207 207 200 208 215 218 217 224 243 245 244 241 216 230 240 241 238 242 246 260 269 263 259 267 268 274 272 271 272 276 278 276 273 269 275 281
212 209 198 190 191 200 207 210 208 204 211 213 225 223 224 236 245 245 238 215 230 243 246 245 255 261 269 272 261 257 268 273 269 276 277 280 280 279 279 268 260 267 276
209 200 197 195 199 202 203 205 201 203 206 218 232 235 230 236 245 245 239 220 223 240 249 250 251 269 275 277 276 262 269 281 276 269 273 274 274 271 267 255 245 250 262
196 200 206 205 203 197 194 202 198 196 209 225 235 250 242 240 243 246 246 246 245 238 249 251 257 272 278 281 281 278 284 290 283 278 277 276 274 270 266 260 254 251 251
201 210 216 212 208 199 198 200 200 198 209 223 228 247 257 240 241 250 255 258 256 251 249 261 272 279 284 283 280 284 288 280 274 275 276 276 271 269 269 271 267 261 263
211 218 211 209 215 211 207 200 202 206 215 225 230 240 251 251 241 238 241 253 258 261 263 268 277 282 282 281 283 283 271 261 268 268 273 275 277 273 272 267 270 274 277
225 229 223 217 212 214 218 216 216 218 215 219 228 228 235 254 253 250 252 248 242 248 270 268 264 270 264 268 268 267 264 268 273 268 270 277 281 279 276 265 261 268 268
223 227 221 212 213 213 226 268 254 244 250 246 243 241 244 253 268 268 267 269 270 270 274 261 262 261 265 270 276 277 270 268 268 266 265 268 273 275 278 272 262 264 267
218 225 219 211 214 220 222 231 269 287 270 262 258 257 257 263 270 271 271 273 273 273 265 257 260 261 262 266 269 272 275 272 268 266 266 265 266 270 271 272 269 268 266
227 233 225 219 220 223 224 226 230 248 277 286 278 271 271 275 276 273 272 278 271 262 249 257 259 260 261 264 265 269 271 271 266 264 265 264 261 264 267 268 266 263 265
234 235 230 228 226 225 224 225 230 238 250 267 285 288 280 282 282 276 274 255 254 260 258 258 259 261 262 261 262 264 265 267 265 262 261 260 258 259 264 264 265 267 269
245 242 238 227 227 226 226 230 239 245 253 261 267 271 277 276 270 268 252 245 250 258 259 260 261 260 260 260 262 263 265 265 263 260 259 259 257 254 259 261 261 265 263
258 260 255 242 233 234 236 238 242 246 251 258 263 267 271 266 264 264 262 257 256 260 260 262 264 263 260 260 259 259 260 262 258 257 259 258 254 256 258 258 259 260 260
255 262 255 244 244 239 243 240 243 249 255 264 274 279 282 275 266 269 269 268 264 259 258 261 264 262 257 257 258 258 258 257 256 255 255 255 254 254 256 258 259 260 257
256 264 271 265 254 261 266 255 252 256 262 266 271 277 276 267 268 272 274 274 271 268 264 261 264 266 263 259 255 250 250 252 251 248 249 254 252 252 254 256 257 258 257
271 266 269 274 270 264 261 262 261 264 267 271 276 278 277 278 279 278 277 275 273 271 269 266 265 266 269 271 267 258 253 253 248 245 241 244 248 252 252 255 256 253 254
268 267 268 269 271 271 272 272 273 273 274 276 277 278 278 278 279 281 279 275 273 274 275 273 271 269 267 267 267 264 264 265 263 253 236 238 243 246 249 253 254 254 253
272 270 272 273 272 272 272 274 276 275 275 277 277 277 276 276 278 281 280 276 276 278 279 277 270 270 273 273 270 268 270 271 269 267 254 240 237 243 247 252 251 250 250
Height
1481 1483 1485 1487 1489 1491 1492 1494 1495 1497 1498 1499 1500 1501 1502 1503 1504 1504 1504 1504 1505 1505 1506 1506 1506 1506 1506 1506 1505 1505 1504 1502 1499 1497 1498 1497 1496 1495 1494 1492 1491 1489 1487
1478 1480 1482 1484 1486 1488 1489 1491 1492 1493 1494 1496 1497 1498 1499 1499 1500 1500 1500 1501 1501 1501 1502 1502 1502 1502 1502 1501 1501 1500 1499 1498 1496 1492 1491 1491 1491 1490 1488 1486 1484 1483 1480
1476 1478 1480 1481 1483 1485 1486 1488 1489 1490 1491 1492 1493 1494 1495 1495 1496 1496 1496 1496 1497 1497 1497 1497 1497 1497 1497 1496 1495 1495 1494 1493 1491 1489 1486 1485 1484 1483 1481 1480 1478 1476 1474
1473 1475 1476 1478 1480 1482 1483 1485 1486 1486 1487 1488 1489 1490 1491 1491 1492 1492 1492 1492 1492 1493 1493 1493 1492 1492 1492 1491 1490 1489 1489 1487 1486 1484 1481 1479 1478 1477 1475 1473 1470 1469 1467
1470 1472 1473 1475 1477 1479 1480 1481 1482 1482 1483 1484 1485 1486 1486 1487 1487 1487 1488 1488 1488 1488 1488 1488 1488 1487 1486 1486 1485 1484 1483 1482 1481 1479 1476 1474 1472 1471 1470 1467 1464 1462 1460
1467 1469 1471 1472 1474 1475 1476 1477 1478 1478 1479 1481 1481 1482 1482 1482 1483 1483 1483 1483 1483 1483 1483 1483 1482 1482 1481 1480 1480 1479 1478 1476 1475 1473 1471 1469 1467 1466 1464 1462 1459 1456 1452
1465 1466 1467 1469 1470 1471 1472 1473 1474 1474 1475 1476 1477 1477 1477 1478 1478 1478 1478 1478 1478 1478 1477 1477 1476 1476 1475 1474 1473 1473 1472 1471 1470 1468 1465 1463 1461 1460 1458 1455 1453 1450 1447
1462 1463 1464 1465 1466 1467 1468 1469 1470 1470 1471 1471 1472 1472 1473 1473 1473 1473 1473 1473 1473 1473 1472 1471 1470 1470 1469 1468 1467 1465 1465 1464 1463 1461 1459 1457 1456 1453 1452 1450 1447 1443 1440
1458 1459 1460 1461 1462 1463 1464 1465 1465 1466 1466 1467 1467 1467 1467 1468 1468 1468 1468 1468 1467 1467 1467 1466 1464 1463 1463 1462 1460 1459 1457 1456 1456 1454 1452 1451 1449 1447 1445 1443 1440 1437 1433
1455 1456 1457 1457 1458 1459 1459 1460 1461 1461 1461 1462 1462 1462 1462 1462 1463 1463 1463 1462 1461 1461 1460 1460 1459 1458 1457 1456 1454 1452 1450 1449 1448 1446 1444 1443 1441 1439 1438 1436 1433 1431 1427
1451 1452 1453 1453 1454 1454 1455 1455 1456 1456 1456 1457 1457 1457 1457 1457 1457 1457 1457 1456 1455 1454 1454 1453 1452 1452 1451 1450 1448 1446 1444 1443 1441 1439 1436 1434 1433 1431 1430 1429 1427 1425 1422
1447 1447 1448 1449 1449 1450 1450 1450 1451 1451 1451 1451 1451 1451 1452 1452 1452 1451 1451 1451 1450 1449 1447 1447 1446 1445 1444 1443 1442 1440 1438 1436 1434 1431 1429 1427 1426 1424 1423 1421 1419 1417 1415
1442 1443 1443 1444 1444 1445 1445 1445 1445 1445 1446 1446 1446 1446 1446 1446 1446 1446 1445 1445 1444 1443 1442 1441 1440 1439 1438 1436 1435 1433 1432 1430 1427 1425 1423 1421 1419 1418 1416 1414 1412 1410 1408
1438 1438 1439 1439 1439 1440 1440 1440 1440 1440 1440 1440 1440 1440 1440 1440 1440 1440 1439 1438 1438 1437 1436 1434 1434 1433 1431 1430 1428 1427 1425 1423 1421 1419 1416 1415 1413 1411 1409 1408 1405 1403 1401
1434 1434 1434 1434 1435 1435 1435 1435 1435 1435 1436 1435 1435 1435 1434 1434 1434 1434 1433 1432 1432 1431 1429 1428 1427 1426 1424 1423 1421 1420 1419 1417 1415 1413 1411 1409 1407 1405 1403 1402 1400 1398 1396
1430 1430 1430 1430 1430 1430 1430 1430 1430 1431 1431 1430 1430 1430 1429 1429 1428 1428 1427 1427 1426 1425 1424 1422 1420 1419 1418 1416 1415 1413 1412 1410 1408 1407 1405 1403 1401 1399 1397 1396 1395 1393 1391
1426 1426 1426 1426 1426 1426 1426 1426 1426 1426 1426 1425 1425 1424 1424 1423 1422 1422 1421 1420 1420 1419 1417 1415 1414 1413 1412 1410 1409 1407 1405 1404 1402 1401 1399 1397 1395 1394 1392 1391 1389 1388 1386
1422 1422 1422 1422 1422 1422 1422 1422 1421 1421 1420 1420 1420 1419 1418 1417 1417 1416 1415 1414 1413 1412 1411 1410 1408 1407 1406 1404 1402 1401 1399 1398 1396 1395 1393 1391 1390 1389 1387 1386 1384 1383 1381
1419 1419 1418 1418 1418 1418 1418 1417 1417 1416 1415 1414 1414 1414 1413 1412 1411 1410 1409 1408 1407 1406 1405 1403 1402 1401 1399 1398 1396 1395 1393 1392 1390 1389 1387 1386 1385 1384 1382 1381 1379 1378 1377
1415 1415 1415 1414 1414 1413 1413 1413 1412 1411 1410 1409 1409 1408 1407 1406 1405 1404 1404 1402 1401 1400 1399 1397 1396 1394 1393 1391 1390 1389 1387 1386 1384 1383 1382 1381 1380 1378 1377 1376 1375 1373 1372
1412 1412 1411 1410 1410 1409 1409 1408 1407 1407 1406 1405 1404 1403 1402 1401 1399 1398 1398 1396 1395 1394 1392 1391 1390 1388 1387 1386 1384 1383 1382 1380 1379 1378 1377 1376 1375 1373 1372 1371 1370 1369 1367
1409 1408 1407 1407 1406 1405 1405 1404 1403 1402 1401 1400 1399 1398 1397 1396 1394 1393 1392 1390 1389 1388 1387 1385 1384 1382 1381 1380 1379 1378 1376 1375 1374 1373 1372 1371 1370 1369 1367 1366 1365 1364 1363
1406 1405 1404 1403 1403 1402 1401 1400 1399 1398 1397 1396 1394 1393 1392 1390 1389 1388 1386 1385 1383 1382 1381 1379 1378 1377 1376 1375 1373 1372 1371 1370 1369 1368 1367 1366 1365 1364 1363 1362 1361 1360 1359
1403 1402 1401 1400 1399 1398 1397 1396 1395 1394 1392 1391 1389 1388 1387 1385 1384 1382 1381 1379 1378 1376 1375 1374 1372 1371 1370 1369 1368 1367 1366 1365 1364 1363 1362 1361 1360 1359 1358 1357 1356 1355 1354
1400 1399 1397 1396 1395 1394 1393 1392 1390 1389 1388 1386 1385 1383 1382 1381 1379 1377 1376 1374 1373 1371 1370 1369 1367 1366 1365 1364 1363 1362 1361 1360 1359 1358 1357 1356 1355 1354 1354 1353 1352 1351 1350
1396 1395 1394 1393 1391 1390 1388 1387 1386 1384 1383 1381 1380 1378 1377 1375 1374 1372 1371 1369 1368 1366 1365 1364 1362 1361 1360 1359 1358 1357 1356 1355 1354 1353 1353 1352 1351 1350 1349 1349 1348 1347 1346